Location: *
(50.8512°N, 5.6907°E)
Time: 10:22:43
(UTC+00:00)

STARLINK-29 - Pass Details

Date: 09 April 2020
Orbit: 387 x 401 km, 53.0° (Epoch: 26 May)

Event Time Altitude Azimuth Distance (km) Brightness Sun altitude
Rises 20:11:42 0° 246° (WSW) 2,284 7.2 -16.2°
Reaches altitude 10° 20:13:46 10° 245° (WSW) 1,433 6.1 -16.5°
Maximum altitude 20:16:58 79° 159° (SSE) 409 2.8 -16.9°
Enters shadow 20:17:55 42° 79° (E) 577 3.4 -17.0°
